This demonstration page uses our WeatherBlox Daily Observations layout. Learn more.

Left ArrowRight Arrow

53.62937, 11.41316

Hourly Observations for November 3, 2022

Temp ( °F °C ) Dew Point ( °F °C ) Humidity (%) Winds ( mph kmh ) Pressure ( in mb ) Visibility ( mi km ) Precip ( " mm )
12:20 am 00:20 Clear 43 6 39 4 87 87 VRB 2 4 30.06 1018 6 10 0.00 0.00
12:50 am 00:50 Clear 45 7 39 4 81 81 S 3 6 30.06 1018 6 10 0.00 0.00
1:20 am 01:20 Clear 45 7 39 4 81 81 SSE 5 7 30.03 1017 6 10 0.00 0.00
1:50 am 01:50 Mostly Cloudy 45 7 39 4 81 81 SSE 7 11 30.03 1017 6 10 0.00 0.00
2:20 am 02:20 Partly Cloudy 45 7 39 4 81 81 SSE 6 9 30.03 1017 6 10 0.00 0.00
2:50 am 02:50 Mostly Cloudy 45 7 39 4 81 81 SSE 6 9 30.00 1016 6 10 0.00 0.00
3:20 am 03:20 Mostly Cloudy 45 7 39 4 81 81 SSE 6 9 30.00 1016 6 10 0.00 0.00
3:50 am 03:50 Mostly Cloudy 45 7 39 4 81 81 SSE 7 11 30.00 1016 6 10 0.00 0.00
4:20 am 04:20 Mostly Cloudy 45 7 39 4 81 81 SSE 7 11 30.00 1016 6 10 0.00 0.00
4:50 am 04:50 Mostly Cloudy 45 7 39 4 81 81 S 7 11 29.97 1015 6 10 0.00 0.00
5:20 am 05:20 Partly Cloudy 45 7 39 4 81 81 SSE 8 13 29.97 1015 6 10 0.00 0.00
5:50 am 05:50 Clear 45 7 39 4 81 81 SSE 6 9 29.97 1015 6 10 0.00 0.00
6:20 am 06:20 Clear 45 7 39 4 81 81 S 6 9 29.97 1015 6 10 0.00 0.00
6:50 am 06:50 Clear 45 7 39 4 81 81 S 6 9 29.94 1014 6 10 0.00 0.00
7:20 am 07:20 Clear 45 7 39 4 81 81 SSE 7 11 29.94 1014 6 10 0.00 0.00
7:50 am 07:50 Mostly Sunny 45 7 39 4 81 81 VRB 6 9 29.94 1014 6 10 0.00 0.00
8:20 am 08:20 Mostly Sunny 46 8 39 4 76 76 S 6 9 29.94 1014 6 10 0.00 0.00
8:50 am 08:50 Mostly Sunny 48 9 41 5 76 76 S 8 13 29.94 1014 6 10 0.00 0.00
9:20 am 09:20 Mostly Sunny 48 9 41 5 76 76 VRB 7 11 29.91 1013 6 10 0.00 0.00
9:50 am 09:50 Mostly Sunny 50 10 43 6 76 76 S 7 11 29.91 1013 6 10 0.00 0.00
10:20 am 10:20 Mostly Sunny 50 10 43 6 76 76 S 7 11 29.91 1013 6 10 0.00 0.00
10:50 am 10:50 Mostly Sunny 52 11 43 6 71 71 S 7 11 29.88 1012 6 10 0.00 0.00
11:20 am 11:20 Mostly Sunny 52 11 45 7 76 76 S 7 11 29.88 1012 6 10 0.00 0.00
11:50 am 11:50 Mostly Sunny 54 12 45 7 71 71 S 7 11 29.88 1012 6 10 0.00 0.00
12:20 pm 12:20 Mostly Sunny 55 13 46 8 72 72 S 6 9 29.85 1011 6 10 0.00 0.00
12:50 pm 12:50 Mostly Sunny 55 13 46 8 72 72 SSE 8 13 29.85 1011 6 10 0.00 0.00
1:20 pm 13:20 Mostly Sunny 54 12 46 8 76 76 SSE 9 15 29.82 1010 6 10 0.00 0.00
1:50 pm 13:50 Mostly Sunny 54 12 46 8 76 76 SSE 8 13 29.82 1010 6 10 0.00 0.00
2:20 pm 14:20 Mostly Sunny 54 12 46 8 76 76 SSE 8 13 29.79 1009 6 10 0.00 0.00
2:50 pm 14:50 Mostly Sunny 54 12 46 8 76 76 SSE 8 13 29.79 1009 6 10 0.00 0.00
3:20 pm 15:20 Mostly Sunny 54 12 46 8 76 76 SSE 6 9 29.79 1009 6 10 0.00 0.00
3:50 pm 15:50 Mostly Sunny 54 12 46 8 76 76 SSE 7 11 29.76 1008 6 10 0.00 0.00
4:20 pm 16:20 Mostly Sunny 54 12 46 8 76 76 SSE 8 13 29.76 1008 6 10 0.00 0.00
4:50 pm 16:50 Mostly Clear 54 12 46 8 76 76 SE 7 11 29.73 1007 6 10 0.00 0.00
5:20 pm 17:20 Mostly Clear 52 11 46 8 82 82 SE 7 11 29.74 1007 6 10 0.00 0.00
5:50 pm 17:50 Mostly Clear 52 11 46 8 82 82 SE 8 13 29.71 1006 6 10 0.00 0.00
6:20 pm 18:20 Mostly Clear 52 11 46 8 82 82 SE 9 15 29.71 1006 6 10 0.00 0.00
6:50 pm 18:50 Mostly Clear 52 11 45 7 76 76 SE 9 15 29.68 1005 6 10 0.00 0.00
7:20 pm 19:20 Mostly Clear 52 11 45 7 76 76 SSE 8 13 29.71 1006 6 10 0.00 0.00
7:50 pm 19:50 Mostly Clear 52 11 43 6 71 71 SE 8 13 29.68 1005 6 10 0.00 0.00
8:20 pm 20:20 Mostly Clear 50 10 43 6 76 76 SE 8 13 29.65 1004 6 10 0.00 0.00
8:50 pm 20:50 Mostly Clear 50 10 43 6 76 76 SE 9 15 29.65 1004 6 10 0.00 0.00
9:20 pm 21:20 Mostly Cloudy 50 10 43 6 76 76 SE 10 17 29.62 1003 6 10 0.00 0.00
9:50 pm 21:50 Cloudy 50 10 43 6 76 76 SSE 8 13 29.62 1003 6 10 0.00 0.00
10:20 pm 22:20 Mostly Cloudy 50 10 43 6 76 76 SSE 8 13 29.62 1003 6 10 0.00 0.00
10:50 pm 22:50 Cloudy 50 10 45 7 82 82 SE 8 13 29.59 1002 6 10 0.00 0.00
11:20 pm 23:20 Cloudy 52 11 45 7 76 76 SSE 9 15 29.59 1002 6 10 0.00 0.00
11:50 pm 23:50 Cloudy 50 10 45 7 82 82 SSE 9 15 29.59 1002 6 10 0.00 0.00

Powered by AerisWeather